Weather History for Grants-Milan, NM

Change the Weather History Date:

Monday, August 26, 2013

  Actual Average Record
Temperature  
Mean Temperature 66 °F -  
Max Temperature 80 °F 83 °F 91 °F (1981)
Min Temperature 52 °F 50 °F 35 °F (1975)
Cooling Degree Days 1    
Growing Degree Days 16 (Base 50)    
Moisture  
Dew Point 54 °F    
Average Humidity 74    
Maximum Humidity 100    
Minimum Humidity 31    
Precipitation  
Precipitation 0.07 in - - ()
Sea Level Pressure  
Sea Level Pressure 30.36 in    
Wind  
Wind Speed 4 mph (SW)    
Max Wind Speed 16 mph    
Max Gust Speed 21 mph    
Visibility 9 miles    
Events Fog , Thunderstorm    
Averages and records for this station are not official NWS values.
T = Trace of Precipitation, MM = Missing Value Source: NWS Daily Summary

Daily Weather History Graph

Daily Weather History Graph

Search for Another Location

Airport:

Trip Planner

Search our weather history database for the weather conditions in past years. The results will help you decide how hot, cold, wet, or windy it might be!

Date:

Astronomy

Aug. 26, 2013 Rise Set
Actual Time 6:39 AM MDT 7:46 PM MDT
Civil Twilight 6:13 AM MDT 8:12 PM MDT
Nautical Twilight 5:42 AM MDT 8:43 PM MDT
Astronomical Twilight 5:10 AM MDT 9:15 PM MDT
Moon 11:14 PM MDT (8/26) 12:29 PM MDT (8/26)
Length of Visible Light 13h 58m
Length of Day
13h 06m
Waning Gibbous, 66% of the Moon is Illuminated
Aug 26
Waning Gibbous
Aug 28
Last Quarter
Sep 5
New
Sep 12
First Quarter
Sep 19
Full

Hourly Weather History & Observations

Time (MDT) Temp. Dew Point Humidity Pressure Visibility Wind Dir Wind Speed Gust Speed Precip Events Conditions
12:15 AM 59.4 °F 57.6 °F 94% 30.40 in 10.0 mi North 3.5 mph - N/A   Clear
12:35 AM 58.1 °F 56.8 °F 96% 30.39 in 10.0 mi Calm Calm - N/A   Clear
12:55 AM 57.7 °F 56.8 °F 97% 30.40 in 10.0 mi NW 3.5 mph - N/A   Clear
1:15 AM 56.8 °F 55.8 °F 96% 30.40 in 10.0 mi West 3.5 mph - N/A   Scattered Clouds
1:35 AM 57.2 °F 56.5 °F 97% 30.39 in 10.0 mi WNW 4.6 mph - N/A   Scattered Clouds
1:55 AM 57.4 °F 56.7 °F 97% 30.38 in 10.0 mi WNW 4.6 mph - N/A   Clear
2:15 AM 57.6 °F 56.8 °F 97% 30.38 in 10.0 mi WNW 4.6 mph - N/A   Clear
2:35 AM 57.4 °F 56.5 °F 97% 30.38 in 10.0 mi WNW 4.6 mph - N/A   Clear
2:55 AM 56.1 °F 55.4 °F 97% 30.38 in 10.0 mi Calm Calm - N/A   Clear
3:15 AM 55.4 °F 54.7 °F 97% 30.38 in 10.0 mi Calm Calm - N/A   Clear
3:35 AM 55.6 °F 55.6 °F 100% 30.38 in 10.0 mi NW 4.6 mph - N/A   Clear
3:55 AM 54.9 °F 54.9 °F 100% 30.38 in 7.0 mi NW 3.5 mph - N/A   Scattered Clouds
4:15 AM 54.9 °F 54.9 °F 100% 30.38 in 10.0 mi NW 3.5 mph - N/A   Scattered Clouds
4:35 AM 55.0 °F 55.0 °F 100% 30.39 in 10.0 mi Calm Calm - N/A   Clear
4:55 AM 54.1 °F 54.0 °F 99% 30.39 in 10.0 mi NW 3.5 mph - N/A   Clear
5:15 AM 55.2 °F 55.2 °F 100% 30.40 in 10.0 mi Calm Calm - N/A   Clear
5:35 AM 53.2 °F 53.2 °F 100% 30.39 in 0.5 mi Calm Calm - N/A Fog Fog
5:55 AM 52.7 °F 52.7 °F 100% 30.40 in 0.2 mi Calm Calm - N/A Fog Fog
6:15 AM 52.0 °F 52.0 °F 100% 30.40 in 0.2 mi NNW 4.6 mph - N/A Fog Fog
6:35 AM 53.2 °F 53.2 °F 100% 30.40 in 0.2 mi NNW 4.6 mph - N/A Fog Fog
6:55 AM 53.2 °F 53.2 °F 100% 30.40 in 0.2 mi WNW 3.5 mph - N/A Fog Fog
7:15 AM 53.6 °F 53.6 °F 100% 30.40 in 0.2 mi WNW 3.5 mph - N/A Fog Fog
7:35 AM 53.6 °F 53.6 °F 100% 30.41 in 0.2 mi NW 3.5 mph - N/A Fog Fog
7:55 AM 54.5 °F 54.5 °F 100% 30.41 in 0.2 mi Calm Calm - N/A Fog Fog
8:15 AM 55.6 °F 55.6 °F 100% 30.42 in 0.2 mi Calm Calm - N/A Fog Fog
8:35 AM 56.7 °F 56.7 °F 100% 30.42 in 2.5 mi Calm Calm - N/A   Overcast
8:55 AM 57.9 °F 57.9 °F 100% 30.42 in 10.0 mi Calm Calm - N/A   Scattered Clouds
9:15 AM 61.5 °F 60.1 °F 95% 30.42 in 10.0 mi SSE 3.5 mph - N/A   Clear
9:35 AM 64.4 °F 59.9 °F 85% 30.42 in 10.0 mi SE 6.9 mph - N/A   Clear
9:55 AM - - N/A% - - North - - N/A   Unknown
10:15 AM - - N/A% - - North - - N/A   Unknown
10:35 AM - - N/A% - - North - - N/A   Unknown
10:55 AM - - N/A% - - North - - N/A   Unknown
11:15 AM 72.9 °F 57.2 °F 58% 30.41 in 10.0 mi SSE 11.5 mph - N/A   Clear
11:35 AM 74.1 °F 57.0 °F 55% 30.40 in 10.0 mi ESE 8.1 mph - N/A   Clear
11:55 AM 75.0 °F 56.5 °F 52% 30.40 in 10.0 mi East 6.9 mph - N/A   Scattered Clouds
12:15 PM 73.9 °F 56.5 °F 54% 30.39 in 10.0 mi ESE 6.9 mph - N/A   Mostly Cloudy
12:35 PM 74.8 °F 55.6 °F 51% 30.38 in 10.0 mi SE 4.6 mph - N/A   Mostly Cloudy
12:55 PM 74.5 °F 54.1 °F 49% 30.38 in 10.0 mi South 6.9 mph - N/A Thunderstorm Overcast
1:15 PM 71.4 °F 57.7 °F 62% 30.38 in 10.0 mi SSW 8.1 mph - N/A   Overcast
1:35 PM 69.3 °F 56.5 °F 64% 30.37 in 10.0 mi WSW 9.2 mph - N/A   Overcast
1:55 PM 68.0 °F 56.8 °F 67% 30.37 in 10.0 mi West 12.7 mph 16.1 mph N/A   Light Drizzle
2:15 PM 69.3 °F 56.8 °F 65% 30.37 in 10.0 mi WNW 10.4 mph - N/A   Overcast
2:35 PM 71.1 °F 57.9 °F 63% 30.35 in 10.0 mi NW 5.8 mph - N/A   Overcast
2:55 PM 75.7 °F 55.4 °F 49% 30.34 in 10.0 mi Calm Calm - N/A   Mostly Cloudy
3:15 PM 76.8 °F 53.2 °F 44% 30.32 in 10.0 mi Calm Calm - N/A   Scattered Clouds
3:35 PM 78.8 °F 50.2 °F 37% 30.32 in 10.0 mi SSE 12.7 mph 16.1 mph N/A Thunderstorm Scattered Clouds
3:55 PM 78.3 °F 48.4 °F 35% 30.31 in 10.0 mi SE 9.2 mph 18.4 mph N/A   Scattered Clouds
4:15 PM 80.2 °F 48.2 °F 32% 30.30 in 10.0 mi ESE 12.7 mph 19.6 mph N/A   Scattered Clouds
4:35 PM 78.4 °F 48.6 °F 35% 30.30 in 10.0 mi SSE 16.1 mph 19.6 mph N/A   Scattered Clouds
4:55 PM 80.6 °F 47.7 °F 31% 30.29 in 10.0 mi SE 12.7 mph 20.7 mph N/A   Scattered Clouds
5:15 PM 78.3 °F 46.8 °F 33% 30.29 in 10.0 mi South 11.5 mph - N/A   Scattered Clouds
5:35 PM 77.4 °F 47.7 °F 35% 30.28 in 10.0 mi South 9.2 mph - N/A   Scattered Clouds
5:55 PM 76.5 °F 49.6 °F 39% 30.28 in 10.0 mi South 10.4 mph - N/A   Scattered Clouds
6:15 PM 75.6 °F 51.3 °F 42% 30.28 in 10.0 mi SSW 9.2 mph - N/A   Scattered Clouds
6:35 PM 75.2 °F 51.1 °F 43% 30.28 in 10.0 mi South 8.1 mph - N/A   Clear
6:55 PM 74.8 °F 51.1 °F 43% 30.28 in 10.0 mi North - - N/A   Clear
7:15 PM 72.9 °F 52.2 °F 48% 30.28 in 10.0 mi South 4.6 mph - N/A   Clear
7:35 PM 70.7 °F 54.5 °F 56% 30.28 in 10.0 mi SW 5.8 mph - N/A   Clear
7:55 PM 68.2 °F 55.4 °F 64% 30.29 in 10.0 mi South 5.8 mph - N/A   Clear
8:15 PM 67.1 °F 54.5 °F 64% 30.29 in 10.0 mi South 5.8 mph - N/A   Scattered Clouds
8:35 PM 65.8 °F 54.7 °F 67% 30.30 in 10.0 mi SSW 4.6 mph - N/A   Scattered Clouds
8:55 PM 66.0 °F 54.5 °F 66% 30.31 in 10.0 mi SSW 3.5 mph - N/A   Mostly Cloudy
9:15 PM 64.8 °F 54.5 °F 69% 30.32 in 10.0 mi Calm Calm - N/A   Scattered Clouds
9:35 PM 63.5 °F 54.3 °F 72% 30.32 in 10.0 mi Calm Calm - N/A   Scattered Clouds
9:55 PM 62.4 °F 54.0 °F 74% 30.33 in 10.0 mi Calm Calm - N/A   Scattered Clouds
10:15 PM 63.9 °F 53.8 °F 70% 30.34 in 10.0 mi SSW 3.5 mph - N/A   Clear
10:35 PM 64.0 °F 53.1 °F 67% 30.34 in 10.0 mi Calm Calm - N/A   Scattered Clouds
10:55 PM 62.2 °F 55.0 °F 77% 30.34 in 10.0 mi Calm Calm - N/A   Mostly Cloudy
11:15 PM 61.0 °F 55.6 °F 82% 30.34 in 10.0 mi Calm Calm - N/A   Overcast
11:35 PM 60.4 °F 54.9 °F 82% 30.34 in 10.0 mi Calm Calm - N/A   Mostly Cloudy
11:55 PM 61.0 °F 53.6 °F 77% 30.34 in 10.0 mi WSW 4.6 mph - N/A   Scattered Clouds